Location: Shenandoah County Park
(38.9356°N, 78.4524°W)
Time: 08:55:58
(UTC-04:00)

Vanguard 1 - Pass Details

Date: 08 February 2023
Orbit: 648 x 3832 km, 34.3° (Epoch: 01 April)

Event Time Altitude Azimuth Distance (km) Brightness Sun altitude
Exits shadow 03:22:08 23° 107° (ESE) 2,209 12.1 -45.0°
Drops below altitude 10° 03:25:50 10° 90° (E) 3,454 13.4 -44.4°
Sets 03:30:03 0° 83° (E) 4,954 14.4 -43.6°
